Aghios Ermolaos, Greece

4:05 PM EEST on May 29, 2017 (GMT +0300)
Aghios Ermolaos

Weather History for 16650 - June, 2013

Change the Weather History Date:

Saturday, June 29, 2013

  Actual Average Record
Temperature  
Mean Temperature 76 °F -  
Max Temperature 84 °F 84 °F - ()
Min Temperature 68 °F 67 °F - ()
Cooling Degree Days 11    
Growing Degree Days 26 (Base 50)    
Moisture  
Dew Point 62 °F    
Average Humidity 63    
Maximum Humidity 94    
Minimum Humidity 35    
Precipitation  
Precipitation 0.00 in 0.01 in - ()
Sea Level Pressure  
Sea Level Pressure 29.82 in    
Wind  
Wind Speed 5 mph ()    
Max Wind Speed 16 mph    
Max Gust Speed -    
Visibility 6.2 miles    
Events      
T = Trace of Precipitation, MM = Missing Value Source: Averaged Metar Reports

Daily Weather History Graph

Daily Weather History Graph

Search for Another Location

Airport or City:

Trip Planner

Search our weather history database for the weather conditions in past years. The results will help you decide how hot, cold, wet, or windy it might be!

Date:

Astronomy

Jun. 29, 2013 Rise Set
Actual Time 5:53 AM EEST 8:51 PM EEST
Civil Twilight 5:20 AM EEST 9:24 PM EEST
Nautical Twilight 4:39 AM EEST 10:05 PM EEST
Astronomical Twilight 3:50 AM EEST 10:53 PM EEST
Moon 12:11 AM EEST 12:44 PM EEST
Length of Visible Light 16h 03m
Length of Day
14h 58m
Waning Gibbous, 59% of the Moon is Illuminated
Jun 29
Waning Gibbous
Jun 30
Last Quarter
Jul 8
New
Jul 16
First Quarter
Jul 22
Full

Hourly Weather History & Observations

Time (EEST) Temp. Heat Index Dew Point Humidity Pressure Visibility Wind Dir Wind Speed Gust Speed Precip Events Conditions
12:20 AM 68.0 °F - 59.0 °F 73% 29.89 in - Calm Calm - N/A   Unknown
12:50 AM 68.0 °F - 59.0 °F 73% 29.89 in - Variable 1.2 mph - N/A   Unknown
1:20 AM 69.8 °F - 60.8 °F 73% 29.89 in - Variable 2.3 mph - N/A   Unknown
1:50 AM 69.8 °F - 62.6 °F 78% 29.89 in - Variable 1.2 mph - N/A   Unknown
2:20 AM 68.0 °F - 62.6 °F 83% 29.89 in - Calm Calm - N/A   Unknown
2:50 AM 68.0 °F - 62.6 °F 83% 29.89 in - Calm Calm - N/A   Clear
3:00 AM 68 °F - 62 °F 75% 29.90 in 6 mi Calm Calm - -  
3:20 AM 68.0 °F - 62.6 °F 83% 29.89 in - Calm Calm - N/A   Unknown
3:50 AM 66.2 °F - 62.6 °F 88% 29.89 in - Calm Calm - N/A   Unknown
4:20 AM 68.0 °F - 64.4 °F 88% 29.89 in - Variable 3.5 mph - N/A   Unknown
4:50 AM 69.8 °F - 66.2 °F 88% 29.89 in - Variable 1.2 mph - N/A   Unknown
5:20 AM 68.0 °F - 66.2 °F 94% 29.86 in - Calm Calm - N/A   Clear
5:50 AM 68.0 °F - 66.2 °F 94% 29.86 in - Calm Calm - N/A   Clear
6:20 AM 68.0 °F - 66.2 °F 94% 29.86 in - Calm Calm - N/A   Clear
6:50 AM 68.0 °F - 66.2 °F 94% 29.86 in - Calm Calm - N/A   Clear
7:20 AM 73.4 °F - 69.8 °F 88% 29.86 in - Calm Calm - N/A   Clear
7:50 AM 75.2 °F - 68.0 °F 78% 29.89 in - NE 5.8 mph - N/A   Clear
8:20 AM 77.0 °F - 68.0 °F 74% 29.89 in - NE 6.9 mph - N/A   Clear
8:50 AM 78.8 °F - 62.6 °F 57% 29.89 in - NE 8.1 mph - N/A   Clear
9:00 AM 78 °F - 62 °F 49% 29.90 in 6 mi NE 8.1 mph - -   Scattered Clouds
9:20 AM 78.8 °F - 60.8 °F 54% 29.89 in - NE 13.8 mph - N/A   Clear
9:50 AM 78.8 °F - 60.8 °F 54% 29.89 in - NE 13.8 mph - N/A   Clear
10:20 AM 80.6 °F 81.1 °F 59.0 °F 48% 29.89 in - NNE 13.8 mph - N/A   Clear
10:50 AM 80.6 °F 81.5 °F 60.8 °F 51% 29.86 in - NE 15.0 mph - N/A   Clear
11:20 AM 80.6 °F 81.5 °F 60.8 °F 51% 29.86 in - NE 16.1 mph - N/A   Clear
11:50 AM 80.6 °F 81.5 °F 60.8 °F 51% 29.86 in - NE 16.1 mph - N/A   Clear
12:20 PM 80.6 °F 81.5 °F 60.8 °F 51% 29.86 in - NE 15.0 mph - N/A   Clear
12:50 PM 82.4 °F 82.9 °F 60.8 °F 48% 29.86 in - NE 12.7 mph - N/A   Clear
1:20 PM 82.4 °F 82.9 °F 60.8 °F 48% 29.86 in - NE 12.7 mph - N/A   Clear
1:50 PM 82.4 °F 82.5 °F 59.0 °F 45% 29.83 in - NE 12.7 mph - N/A   Clear
2:20 PM 82.4 °F 82.5 °F 59.0 °F 45% 29.83 in - NNE 12.7 mph - N/A   Clear
2:50 PM 84.2 °F 83.8 °F 59.0 °F 42% 29.83 in 6.2 mi NNE 13.8 mph - N/A   Partly Cloudy
3:00 PM 83 °F - 60 °F 35% 29.83 in 6 mi NNE 13.8 mph - -   Scattered Clouds
3:20 PM 82.4 °F 82.5 °F 59.0 °F 45% 29.80 in 6.2 mi NNE 12.7 mph - N/A   Partly Cloudy
3:50 PM 84.2 °F 83.8 °F 59.0 °F 42% 29.80 in 6.2 mi NNE 11.5 mph - N/A   Partly Cloudy
4:20 PM 84.2 °F 83.8 °F 59.0 °F 42% 29.80 in 6.2 mi NNE 11.5 mph - N/A   Partly Cloudy
4:50 PM 84.2 °F 83.8 °F 59.0 °F 42% 29.77 in 6.2 mi NNE 10.4 mph - N/A   Partly Cloudy
5:20 PM 84.2 °F 83.5 °F 57.2 °F 40% 29.77 in 6.2 mi NNE 8.1 mph - N/A   Partly Cloudy
5:50 PM 84.2 °F 83.8 °F 59.0 °F 42% 29.74 in 6.2 mi NNE 8.1 mph - N/A   Partly Cloudy
6:20 PM 82.4 °F 82.5 °F 59.0 °F 45% 29.74 in 6.2 mi NNE 6.9 mph - N/A   Partly Cloudy
6:50 PM 80.6 °F 81.1 °F 59.0 °F 48% 29.74 in 6.2 mi NNE 6.9 mph - N/A   Partly Cloudy
7:20 PM 80.6 °F 81.1 °F 59.0 °F 48% 29.71 in 6.2 mi North 4.6 mph - N/A   Partly Cloudy
7:50 PM 78.8 °F - 59.0 °F 51% 29.71 in 6.2 mi North 4.6 mph - N/A   Partly Cloudy
8:20 PM 77.0 °F - 60.8 °F 57% 29.71 in 6.2 mi NNE 4.6 mph - N/A   Partly Cloudy
8:50 PM 75.2 °F - 60.8 °F 61% 29.71 in 6.2 mi Variable 3.5 mph - N/A   Scattered Clouds
9:00 PM 75 °F - 60 °F 50% 29.73 in 6 mi 3.5 mph - -   Scattered Clouds
9:20 PM 73.4 °F - 60.8 °F 65% 29.71 in 6.2 mi Variable 3.5 mph - N/A   Scattered Clouds
9:50 PM 71.6 °F - 60.8 °F 69% 29.71 in - Variable 1.2 mph - N/A   Unknown
10:20 PM 69.8 °F - 60.8 °F 73% 29.71 in - Variable 2.3 mph - N/A   Unknown
10:50 PM 71.6 °F - 60.8 °F 69% 29.74 in - Variable 3.5 mph - N/A   Unknown
11:20 PM 69.8 °F - 60.8 °F 73% 29.74 in - NW 4.6 mph - N/A   Unknown
11:50 PM 75.2 °F - 62.6 °F 65% 29.74 in - NNW 8.1 mph - N/A   Unknown